Sivas, Turkey

12:16 AM +03 on October 19, 2017 (GMT +0300)
Sivas

Weather History for LTAR - September, 2012

Change the Weather History Date:

Thursday, September 27, 2012

  Actual Average Record
Temperature  
Mean Temperature 64 °F -  
Max Temperature 83 °F 65 °F - ()
Min Temperature 45 °F 40 °F - ()
Degree Days  
Heating Degree Days 1    
Growing Degree Days 14 (Base 50)    
Moisture  
Dew Point 27 °F    
Average Humidity 29    
Maximum Humidity 56    
Minimum Humidity 7    
Precipitation  
Precipitation 0.00 in 0.04 in - ()
Sea Level Pressure  
Sea Level Pressure 30.25 in    
Wind  
Wind Speed 4 mph ()    
Max Wind Speed 16 mph    
Max Gust Speed -    
Visibility 9.0 miles    
Events      
T = Trace of Precipitation, MM = Missing Value Source: Averaged Metar Reports

Daily Weather History Graph

Daily Weather History Graph

Search for Another Location

Airport or City:

Trip Planner

Search our weather history database for the weather conditions in past years. The results will help you decide how hot, cold, wet, or windy it might be!

Date:

Astronomy

Sep. 27, 2012 Rise Set
Actual Time 6:24 AM EEST 6:21 PM EEST
Civil Twilight 5:58 AM EEST 6:47 PM EEST
Nautical Twilight 5:26 AM EEST 7:19 PM EEST
Astronomical Twilight 4:54 AM EEST 7:50 PM EEST
Moon 4:41 PM EEST (9/27) 3:32 AM EEST (9/27)
Length of Visible Light 12h 49m
Length of Day
11h 56m
Waxing Gibbous, 92% of the Moon is Illuminated
Sep 27
Waxing Gibbous
Sep 30
Full
Oct 8
Last Quarter
Oct 15
New
Oct 22
First Quarter

Hourly Weather History & Observations

Time (EEST) Temp. Dew Point Humidity Pressure Visibility Wind Dir Wind Speed Gust Speed Precip Events Conditions
12:50 AM 50.0 °F 32.0 °F 50% 30.21 in - NNE 3.5 mph - N/A   Clear
1:50 AM 48.2 °F 32.0 °F 54% 30.21 in - Calm Calm - N/A   Clear
3:00 AM 50 °F 39 °F 56%  in 9 mi Calm Calm - -  
5:50 AM 44.6 °F 26.6 °F 49% 30.24 in - SE 2.3 mph - N/A   Clear
6:50 AM 46.4 °F 26.6 °F 46% 30.24 in - SE 2.3 mph - N/A   Clear
7:50 AM 57.2 °F 32.0 °F 38% 30.24 in - Calm Calm - N/A   Clear
8:50 AM 62.6 °F 26.6 °F 26% 30.27 in - Variable 2.3 mph - N/A   Clear
9:00 AM 56 °F 34 °F 31%  in 9 mi South 1.2 mph - -  
9:50 AM 68.0 °F 24.8 °F 20% 30.27 in - Variable 2.3 mph - N/A   Clear
10:50 AM 68.0 °F 28.4 °F 23% 30.27 in - WNW 6.9 mph - N/A   Clear
11:50 AM 69.8 °F 28.4 °F 21% 30.27 in - WNW 6.9 mph - N/A   Clear
12:50 PM 71.6 °F 28.4 °F 20% 30.24 in - Variable 4.6 mph - N/A   Clear
1:50 PM 73.4 °F 26.6 °F 18% 30.24 in - WSW 4.6 mph - N/A   Clear
2:50 PM 75.2 °F 24.8 °F 15% 30.24 in - Variable 8.1 mph - N/A   Clear
3:00 PM 81 °F 27 °F 7%  in 9 mi East 2.3 mph - -  
3:50 PM 73.4 °F 24.8 °F 16% 30.24 in - NNW 12.7 mph - N/A   Clear
4:50 PM 73.4 °F 24.8 °F 16% 30.24 in - North 12.7 mph - N/A   Clear
5:50 PM 68.0 °F 26.6 °F 21% 30.24 in - North 15.0 mph - N/A   Clear
6:50 PM 64.4 °F 26.6 °F 24% 30.24 in - North 16.1 mph - N/A   Clear
7:50 PM 60.8 °F 26.6 °F 27% 30.27 in - North 9.2 mph - N/A   Clear
8:50 PM 57.2 °F 26.6 °F 31% 30.30 in - North 6.9 mph - N/A   Clear
9:00 PM 63 °F 30 °F 18%  in 9 mi Calm Calm - -  
9:50 PM 53.6 °F 21.2 °F 28% 30.30 in - North 6.9 mph - N/A   Clear
10:50 PM 50.0 °F 21.2 °F 32% 30.30 in - ESE 2.3 mph - N/A   Clear
11:50 PM 50.0 °F 21.2 °F 32% 30.27 in - ESE 6.9 mph - N/A   Clear